STARLINK-2531 (48483 NORAD) Tracking and Keplerian Element Data

This shows tracking and keplerian element data for the satellite.

Feedback or suggestion? Click here.




ElementValue
Catalog48483
NameSTARLINK-2531
Epoch Orbit1312
Epoch Day214.65060018
Epoch Year2021
RAAN183.5918
Inclination53.0547
Eccentricity0.0001676
Argument of Perigee63.9192
Mean Anonmoly296.1969
Mean Motion15.06396272
Decay Rate2.38E-06
L11 48483U 21040BH 21214.65060018 .00000238 00000-0 34913-4 0 9997
L22 48483 53.0547 183.5918 0001676 63.9192 296.1969 15.06396272 13128

Live tracking and technical data element details for STARLINK-2531 (NORAD 48483). STARLINK-2531 can be tracked NOW for your location showing map with azimuth and elevation plus other details from your city location.

Track the satellite on the map from your city or location and see movement details for azimuth, elevation, latitude, longitude, range, height, and movement on the map or in text.







IsCatalogInMostPopularTable: catalog: 48483, numindb: 25
Update: records affected: 1



GetName: 48483 STARLINK-2531

Hit Count: updated at: Tue, 03 Aug 2021 22:57:11 GMT